Flag for South Africa Weather past 2 weeks in Pretoria, South Africa

Now
43 °F

Quite cool.


Feels Like: 43 °F
Forecast: 43 / 73 °F
Wind: 1 mph from Southeast

Location: Waterkloof Lmb

Current Time: Jul 5, 2015 at 2:19:21 AM

Latest Report: Jul 5, 2015 at 2:00 AM


Visibility: N/A

Pressure: 30.36 "Hg (25.77 "Hg at 1338m altitude)

Humidity: 76%

Dew point: 36 °F

Location of PretoriaLocation

Historic Weather in Pretoria — Graph

°F

Pretoria temperature yesterday

Maximum temperature yesterday: 66 °F (at 2:00 PM)
Minimum temperature yesterday: 37 °F (at 7:00 AM)
Average temperature yesterday: 52 °F

Past Weeks' High & Low Weather Summary

 TemperatureHumidityPressure
High68 °F (Jun 25, 12:00 PM)100% (Jun 29, 1:00 AM)30.60 "Hg (Jun 29, 1:00 AM)
Low34 °F (Jun 25, 6:00 AM)18% (Jun 25, 2:00 PM)30.24 "Hg (Jun 24, 4:00 PM)
Average51 °F58%30.39 "Hg
* Reported Jun 20 1:00 AM — Jul 5 1:00 AM, Pretoria, Weather by CustomWeather, © 2015

Note: Actual official high and low records may vary slightly from our data, if they occured in-between our weather recording intervals... More about our weather records

Advertising

Pretoria weather history for previous 24 hours

 ConditionsComfort  
Time TempWeatherWind HumidityBarometerVisibility
1:00 AM
Sun, Jul 5
43 °FQuite cool.1 mph71%30.36 "HgN/A
12:00 AM43 °FQuite cool.2 mph76%30.39 "HgN/A
11:00 PM
Sat, Jul 4
45 °FQuite cool.2 mph71%30.39 "HgN/A
10:00 PM46 °FCool.1 mph62%30.39 "HgN/A
9:00 PM50 °FCool.No wind58%30.39 "HgN/A
8:00 PM52 °FCool.2 mph54%30.36 "HgN/A
7:00 PM54 °FCool.5 mph47%30.36 "HgN/A
6:00 PM55 °FRefreshingly cool.6 mph44%30.36 "HgN/A
5:00 PM63 °FMild.3 mph34%30.33 "HgN/A
4:00 PM64 °FMild.3 mph32%30.36 "HgN/A
3:00 PM66 °FMild.3 mph30%30.36 "HgN/A
2:00 PM66 °FMild.2 mph30%30.36 "HgN/A
1:00 PM64 °FMild.3 mph34%30.39 "HgN/A
12:00 PM63 °FMild.5 mph39%30.42 "HgN/A
11:00 AM61 °FRefreshingly cool.6 mph42%30.42 "HgN/A
10:00 AM59 °FRefreshingly cool.7 mph48%30.45 "HgN/A
9:00 AM54 °FCool.5 mph54%30.45 "HgN/A
8:00 AM46 °FCool.1 mph71%30.42 "HgN/A
7:00 AM37 °FChilly.No wind81%30.42 "HgN/A
6:00 AM41 °FQuite cool.1 mph76%30.42 "HgN/A
5:00 AM41 °FQuite cool.1 mph76%30.39 "HgN/A
3:00 AM41 °FQuite cool.2 mph81%30.42 "HgN/A
2:00 AM43 °FQuite cool.1 mph76%30.39 "HgN/A
Weather by CustomWeather, © 2015

See weather overviewHow to use our weather pages